[TLELIST] Archives

 

[TLELIST] Current TLEs

October 28th 2025 PDT

0 HST 1 20580U 90037B 25300.93009246 .00009662 00000-0 34408-3 0 9992 2 20580 28.4672 224.0916 0002144 83.0893 276.9946 15.27181288752989 0 ISS (ZARYA) 1 25544U 98067A 25300.68375554 .00015570 00000-0 28487-3 0 9993 2 25544 51.6344 10.4932 0004705 346.2107 13.8753 15.49527127535714 0 CXO 1 25867U 99040B 25301.66016621 .00000932 00000-0 00000-0 0 9993 2 25867 52.1339 124.2561 8214465 310.6062 0.1647 0.37799947 16440 ...Continue Reading

[TLELIST] Current TLEs

October 27th 2025 PDT

0 HST 1 20580U 90037B 25300.14590576 .00008748 00000-0 31098-3 0 9992 2 20580 28.4675 229.4219 0002136 75.7438 284.3394 15.27166615752865 0 ISS (ZARYA) 1 25544U 98067A 25300.16780669 .00014439 00000-0 26496-3 0 9994 2 25544 51.6344 13.0478 0004676 344.0892 15.9949 15.49510292535638 0 CXO 1 25867U 99040B 25301.66016621 .00000932 00000-0 00000-0 0 9993 2 25867 52.1339 124.2561 8214465 310.6062 0.1647 0.37799947 16440 ...Continue Reading

[TLELIST] Current TLEs

October 27th 2025 PDT

0 HST 1 20580U 90037B 25300.14590576 .00008748 00000-0 31098-3 0 9992 2 20580 28.4675 229.4219 0002136 75.7438 284.3394 15.27166615752865 0 ISS (ZARYA) 1 25544U 98067A 25300.16780669 .00014439 00000-0 26496-3 0 9994 2 25544 51.6344 13.0478 0004676 344.0892 15.9949 15.49510292535638 0 CXO 1 25867U 99040B 25301.66016621 .00000932 00000-0 00000-0 0 9993 2 25867 52.1339 124.2561 8214465 310.6062 0.1647 0.37799947 16440 ...Continue Reading

[TLELIST] Current TLEs

October 27th 2025 PDT

0 HST 1 20580U 90037B 25300.14590576 .00008748 00000-0 31098-3 0 9992 2 20580 28.4675 229.4219 0002136 75.7438 284.3394 15.27166615752865 0 ISS (ZARYA) 1 25544U 98067A 25300.16780669 .00014439 00000-0 26496-3 0 9994 2 25544 51.6344 13.0478 0004676 344.0892 15.9949 15.49510292535638 0 CXO 1 25867U 99040B 25301.66016621 .00000932 00000-0 00000-0 0 9993 2 25867 52.1339 124.2561 8214465 310.6062 0.1647 0.37799947 16440 ...Continue Reading

[TLELIST] Current TLEs

October 26th 2025 PDT

0 HST 1 20580U 90037B 25299.23101267 .00009097 00000-0 32384-3 0 9991 2 20580 28.4678 235.6409 0002167 65.9954 294.0868 15.27150496752725 0 ISS (ZARYA) 1 25544U 98067A 25299.20038895 .00014735 00000-0 27050-3 0 9999 2 25544 51.6346 17.8374 0004636 339.5768 20.5035 15.49479093535488 0 CXO 1 25867U 99040B 25301.66016621 .00000932 00000-0 00000-0 0 9993 2 25867 52.1339 124.2561 8214465 310.6062 0.1647 0.37799947 16440 ...Continue Reading

[TLELIST] Current TLEs

October 25th 2025 PDT

0 HST 1 20580U 90037B 25298.18540833 .00010258 00000-0 36633-3 0 9992 2 20580 28.4680 242.7474 0002153 56.7096 303.3705 15.27131570752567 0 ISS (ZARYA) 1 25544U 98067A 25298.16845503 .00018212 00000-0 33268-3 0 9997 2 25544 51.6349 22.9463 0004587 335.6556 24.4216 15.49445289535321 0 CXO 1 25867U 99040B 25299.01581391 .00000853 00000-0 00000+0 0 9990 2 25867 52.0858 124.3383 8218278 310.6210 0.1219 0.37802417 16430 ...Continue Reading

[TLELIST] Current TLEs

October 25th 2025 PDT

0 HST 1 20580U 90037B 25298.18540833 .00010258 00000-0 36633-3 0 9992 2 20580 28.4680 242.7474 0002153 56.7096 303.3705 15.27131570752567 0 ISS (ZARYA) 1 25544U 98067A 25298.16845503 .00018212 00000-0 33268-3 0 9997 2 25544 51.6349 22.9463 0004587 335.6556 24.4216 15.49445289535321 0 CXO 1 25867U 99040B 25299.01581391 .00000853 00000-0 00000+0 0 9990 2 25867 52.0858 124.3383 8218278 310.6210 0.1219 0.37802417 16430 ...Continue Reading

[TLELIST] Current TLEs

October 24th 2025 PDT

0 HST 1 20580U 90037B 25296.94373471 .00009822 00000-0 35073-3 0 9998 2 20580 28.4684 251.1863 0002172 44.1900 315.8869 15.27106254752372 0 ISS (ZARYA) 1 25544U 98067A 25296.68500554 .00016678 00000-0 30600-3 0 9997 2 25544 51.6348 30.2896 0004513 329.2720 30.8004 15.49389998535097 0 CXO 1 25867U 99040B 25299.01581391 .00000853 00000-0 00000+0 0 9990 2 25867 52.0858 124.3383 8218278 310.6210 0.1219 0.37802417 16430 ...Continue Reading

[TLELIST] Current TLEs

October 24th 2025 PDT

0 HST 1 20580U 90037B 25296.94373471 .00009822 00000-0 35073-3 0 9998 2 20580 28.4684 251.1863 0002172 44.1900 315.8869 15.27106254752372 0 ISS (ZARYA) 1 25544U 98067A 25296.68500554 .00016678 00000-0 30600-3 0 9997 2 25544 51.6348 30.2896 0004513 329.2720 30.8004 15.49389998535097 0 CXO 1 25867U 99040B 25299.01581391 .00000853 00000-0 00000+0 0 9990 2 25867 52.0858 124.3383 8218278 310.6210 0.1219 0.37802417 16430 ...Continue Reading

[TLELIST] Current TLEs

October 23rd 2025 PDT

0 HST 1 20580U 90037B 25296.15950932 .00010004 00000-0 35753-3 0 9993 2 20580 28.4687 256.5162 0002150 36.1884 323.8856 15.27089889752250 0 ISS (ZARYA) 1 25544U 98067A 25295.78201116 .00014649 00000-0 27011-3 0 9997 2 25544 51.6347 34.7593 0004450 325.2388 34.8309 15.49358610534958 0 CXO 1 25867U 99040B 25296.37207216 .00000767 00000-0 00000-0 0 9992 2 25867 52.0490 124.4132 8221787 310.6302 0.1667 0.37807083 16426 ...Continue Reading
  • This mailing list is a public mailing list - anyone may join or leave, at any time.
  • This mailing list is announce-only.

International Space Station (ISS) / Hubble Space Telescope (HST) / Chandra X-Ray Observatory Orbital Data via EMAIL

Privacy Policy:

Private list